sat.trackr.live / text

‹ back to catalog

STARLINK-36060

NORAD 67090 · 2025-298R

PAYLOAD ACTIVE UNKNOWN

§ Identity

Operator
Country
US
Launch date
2025-12-14
Launch site
AFWTR
Launch vehicle
Mass (kg)
RCS (m²)

Purposes: comms

External: N2YO · Heavens-Above · Gunter

§ Orbital elements

Epoch: 2026-05-25T02:31:24.648096Z

Period
96.11 min
Inclination
70.0015°
Eccentricity
0.0003473
Mean motion
14.98339965 rev/d
Perigee alt
569.6 km
Apogee alt
574.4 km
Semi-major
6,950.2 km
B*
1.0180e-4
RAAN
181.7841°
Arg perigee
263.8178°
Mean anomaly
96.2585°
Rev number
2,466

§ Raw data

STARLINK-360601 67090U 25298R   26145.10514639  .00001122  00000+0  10180-3 0  99932 67090  70.0015 181.7841 0003473 263.8178  96.2585 14.98339965 24669

JSON: /api/v1/satellites/67090 · /tle

For live sub-satellite position, see the globe view (requires WebGL).

§ Visibility from observer

Set your observer location to see the next 7 days of passes ≥ 10°. The values pass through the URL so the page stays shareable.

No JS? Fill the form by hand. The geolocation button needs JavaScript.